Погода в Садовском

Россия / Республика Мордовия     54°18′53″N   45°28′27″E
темп.,
°C
ветер,
м/с
пор.,
м/с
влажн.,
%
обл.,
%
осадки,
мм/ч
давл.,
гПа
погр.,
м
27 октября, ср
ср2700:00+2юз61466100 0.0 1023423
03:00+2юз61466100 0.0 1022433
06:00+2юз61365100 0.0 1021391
09:00+3юз71458100 0.0 1020488
12:00+7юз81548100 0.0 1019699
15:00+7юз81550100 0.0 1017843
18:00+5юз8165095 0.0 1017723
21:00+4юз8165098 0.0 1016693
28 октября, чт
чт2800:00+4зюз81477100 0.1 1015926
03:00+6з71278100 0.1 1015824
06:00+5зюз61180100 0.0 1015512
09:00+5юз6108198 0.0 1015461
12:00+7юз7967100 0.0 1014809
15:00+8юз61063100 0.0 1013890
18:00+6юз71187100 1.4 10131100
21:00+6з5992100 2.5 1013676
29 октября, пт
пт2900:00+6ссз5789100 0.2 1016908
03:00+5с51087100 0.2 1020683
06:00+5с5886100 0.0 1023509
09:00+3ссв447611 0.0 1026425
12:00+4с335743 0.0 1029607
15:00+5ссз224924 0.0 1029572
18:00+2ююз1159100 0.0 103010
21:00+3юз3673100 0.0 1030155
30 октября, сб
сб3000:00+4юз511798 0.0 1030407
03:00+4зюз614825 0.0 1030365
06:00+3зюз6148340 0.0 1030328
09:00+5зюз6147549 0.0 1030403
12:00+9зюз8126199 0.0 1030548
15:00+9зюз61264100 0.0 1030512
18:00+7зюз6127357 0.0 1030322
21:00+6зюз512785 0.0 1031273
31 октября, вс
вс3100:00+4зюз411825 0.0 1031235
03:00+3зюз3108817 0.0 1032196
06:00+3зюз39915 0.0 1032168
09:00+5зюз410795 0.0 1032271
12:00+9зюз69585 0.0 1031483
15:00+10зюз510595 0.0 1030484
18:00+6юз410775 0.0 1030218
21:00+4юз39825 0.0 1031171